Flag for U.S.A. Weather past 2 weeks in Colorado Springs, Colorado, U.S.A.

Now
21 °F

More clouds than sun.


Feels Like: 11 °F
Forecast: 10 / 19 °F
Wind: 9 mph from North

Location: City Of Colorado Springs Municipal Airport

Current Time: Dec 26, 2014 at 12:59:26 PM

Latest Report: Dec 26, 2014 at 11:54 AM


Visibility: 10 mi

Pressure: 30.02 "Hg

Humidity: 60%

Dew point: 9 °F

Location of Colorado SpringsLocation

Historic Weather in Colorado Springs — Graph

°F

Colorado Springs temperature yesterday

Maximum temperature yesterday: 54 °F (at 11:54 AM)
Minimum temperature yesterday: 22 °F (at 11:54 PM)
Average temperature yesterday: 36 °F

Past Weeks' High & Low Weather Summary

 TemperatureHumidityPressure
High60 °F (Dec 11, 1:54 PM)96% (Dec 18, 12:54 AM)30.36 "Hg (Dec 18, 12:54 AM)
Low10 °F (Dec 24, 1:54 AM)14% (Dec 11, 12:54 PM)29.33 "Hg (Dec 25, 11:54 AM)
Average33 °F59%29.97 "Hg
* Reported Dec 11 11:54 AM — Dec 26 11:54 AM, Colorado Springs, Weather by CustomWeather, © 2014

Note: Actual official high and low records may vary slightly from our data, if they occured in-between our weather recording intervals... More about our weather records

Advertising

Colorado Springs weather history for previous 24 hours

 ConditionsComfort  
Time TempWeatherWind HumidityBarometerVisibility
11:54 AM
Dec 26
21 °FMore clouds than sun.9 mph60%30.02 "Hg10 mi
10:54 AM20 °FBroken clouds.9 mph60%30.06 "Hg10 mi
9:54 AM20 °FLight snow. Broken clouds.12 mph68%30.05 "Hg6 mi
8:54 AM19 °FLight snow. Cloudy.8 mph71%30.06 "Hg7 mi
7:54 AM17 °FLight snow. More clouds than sun.9 mph74%30.04 "Hg4 mi
6:54 AM17 °FLight snow. Mostly cloudy.8 mph74%30.01 "Hg8 mi
5:54 AM18 °FMostly cloudy.13 mph71%29.97 "Hg10 mi
4:54 AM18 °FMostly cloudy.10 mph71%29.95 "Hg10 mi
3:54 AM19 °FMostly cloudy.13 mph68%29.90 "Hg10 mi
2:54 AM19 °FLight snow. Mostly cloudy.20 mph71%29.88 "Hg7 mi
1:54 AM21 °FLight snow. Mostly cloudy.21 mph78%29.81 "Hg2 mi
12:54 AM21 °FLight snow. Mostly cloudy.14 mph81%29.78 "Hg2 mi
11:54 PM
Dec 25
22 °FLight snow. Mostly cloudy.21 mph78%29.77 "Hg1 mi
10:59 PM24 °FLight snow. Mostly cloudy.20 mph71%29.75 "Hg3 mi
9:54 PM25 °FPartly cloudy.26 mph66%29.72 "Hg10 mi
8:54 PM25 °FMostly cloudy.26 mph75%29.72 "Hg10 mi
7:54 PM28 °FPartly cloudy.21 mph72%29.69 "Hg10 mi
6:54 PM29 °FPassing clouds.15 mph82%29.72 "Hg10 mi
5:54 PM31 °FPassing clouds.16 mph79%29.69 "Hg10 mi
4:54 PM32 °FPassing clouds.8 mph73%29.62 "Hg10 mi
3:54 PM39 °FScattered clouds.15 mph57%29.56 "Hg10 mi
2:54 PM43 °FScattered clouds.16 mph43%29.49 "Hg10 mi
1:54 PM49 °FScattered clouds.15 mph31%29.40 "Hg10 mi
12:54 PM54 °FScattered clouds.14 mph16%29.35 "Hg10 mi
Weather by CustomWeather, © 2014

See weather overviewHow to use our weather pages